SCP
0 0 0 0 0 0 0 0 0 0 0 0 0 0 0 0 0 0 0 0 0 0 0 0 0 0 0 0 0 1 2 2 2 2 2 1 0 0 0 0 0 0 0 0
0 0 0 0 0 0 0 0 0 0 0 0 0 0 0 0 0 0 0 0 0 0 0 0 0 0 0 0 1 1 2 2 2 2 1 1 0 0 0 0 0 0 0 0
0 0 0 0 0 0 0 0 0 0 0 0 0 0 0 0 0 0 0 0 0 0 0 0 0 0 0 0 1 2 2 2 2 1 1 0 0 0 0 0 0 0 0 0
0 0 0 0 0 0 0 0 0 0 0 0 0 0 0 0 0 0 0 0 0 0 0 0 0 0 0 0 1 2 2 2 1 1 0 0 0 0 0 0 0 0 0 0
0 0 0 0 0 0 0 0 0 0 0 0 0 0 0 0 0 0 0 0 0 0 0 0 0 0 0 0 1 2 1 1 0 0 0 0 0 0 0 0 0 0 0 0
0 0 0 0 0 0 0 0 0 0 0 0 0 0 0 0 0 0 0 0 0 0 0 0 0 0 0 0 1 1 1 0 0 0 0 0 0 0 0 0 0 0 0 0
0 0 0 0 0 0 0 0 0 0 0 0 0 0 0 0 0 0 0 0 0 0 0 0 0 0 0 0 1 1 1 0 0 0 0 0 0 0 0 0 0 0 0 0
0 0 0 0 0 0 0 0 0 0 0 0 0 0 0 0 0 0 0 0 0 0 0 0 0 0 0 0 0 0 0 0 0 0 0 0 0 0 0 0 0 0 0 0
0 0 0 0 0 0 0 0 0 0 0 0 0 0 0 0 0 0 0 0 0 0 0 0 0 0 0 0 0 0 0 0 0 0 0 0 0 0 0 0 0 0 0 0
0 0 0 0 0 0 0 0 0 0 0 0 0 0 0 0 0 0 0 0 0 0 0 0 0 0 0 0 0 0 0 0 0 0 0 0 0 0 0 0 0 0 0 0
0 0 0 0 0 0 0 0 0 0 0 0 0 0 0 0 0 0 0 0 0 0 0 0 0 0 0 0 0 0 0 0 0 0 0 0 0 0 0 0 0 0 0 0
0 0 0 0 0 0 0 0 0 0 0 0 0 0 0 0 0 0 0 0 0 0 0 0 0 0 0 0 0 0 0 0 0 0 0 0 0 0 0 0 0 0 0 0
0 0 0 0 0 0 0 0 0 0 0 0 0 0 0 0 0 0 0 0 0 0 0 0 0 0 0 0 0 0 0 0 0 0 0 0 0 0 0 0 0 0 0 0
0 0 0 0 0 0 0 0 0 0 0 0 0 0 0 0 0 0 0 0 0 0 0 0 0 0 0 0 0 0 0 0 0 0 0 0 0 0 0 0 0 0 0 0
0 0 0 0 0 0 0 0 0 0 0 0 0 0 0 0 0 0 0 0 0 0 0 0 0 0 0 0 0 0 0 0 0 0 0 0 0 0 0 0 0 0 0 0
0 0 0 0 0 0 0 0 0 0 0 0 0 0 0 0 0 0 0 0 0 0 0 0 0 0 0 0 0 0 0 0 0 0 0 0 0 0 0 0 0 0 0 0
0 0 0 0 0 0 0 0 0 0 0 0 0 0 0 0 0 0 0 0 0 0 0 0 0 0 0 0 0 0 0 0 0 0 0 0 0 0 0 0 0 0 0 0
0 0 0 0 0 0 0 0 0 0 0 0 0 0 0 0 0 0 0 0 0 0 0 0 0 0 0 0 0 0 0 0 0 0 0 0 0 0 0 0 0 0 0 0
0 0 0 0 0 0 0 0 0 0 0 0 0 0 0 0 0 0 0 0 0 0 0 0 0 0 0 0 0 0 0 0 0 0 0 0 0 0 0 0 0 0 0 0
0 0 0 0 0 0 0 0 0 0 0 0 0 0 0 0 0 0 0 0 0 0 0 0 0 0 0 0 0 0 0 0 0 0 0 0 0 0 0 0 0 0 0 0
0 0 0 0 0 0 0 0 0 0 0 0 0 0 0 0 0 0 0 0 0 0 0 0 0 0 0 0 0 0 0 0 0 0 0 0 0 0 0 0 0 0 0 0
0 0 0 0 0 0 0 0 0 0 0 0 0 0 0 0 0 0 0 0 0 0 0 0 0 0 0 0 0 0 0 0 0 0 0 0 0 0 0 0 0 0 0 0
0 0 0 0 0 0 0 0 0 0 0 0 0 0 0 0 0 0 0 0 0 0 0 0 0 0 0 0 0 0 0 0 0 0 0 0 0 0 0 0 0 0 0 0
0 0 0 0 0 0 0 0 0 0 0 0 0 0 0 0 0 0 0 0 0 0 0 0 0 0 0 0 0 0 0 0 0 0 0 0 0 0 0 0 0 0 0 0
0 0 0 0 0 0 0 0 0 0 0 0 0 0 0 0 0 0 0 0 0 0 0 0 0 0 0 0 0 0 0 0 0 0 0 0 0 0 0 0 0 0 0 0
0 0 0 0 0 0 0 0 0 0 0 0 0 0 0 0 0 0 0 0 0 0 0 0 0 0 0 0 0 0 0 0 0 0 0 0 0 0 0 0 0 0 0 0
Wind_Speed
7 7 10 12 14 10 6 9 11 9 7 11 18 22 19 18 19 21 21 20 20 19 17 16 15 13 11 10 9 10 12 14 13 11 11 10 9 8 8 7 9 10 11 10
6 11 13 9 9 12 14 15 16 13 10 12 19 28 23 22 25 23 24 23 23 23 22 20 18 15 13 12 10 11 14 15 16 13 11 8 9 8 8 8 8 8 9 9
11 2 6 10 12 13 15 16 15 14 13 14 18 24 19 13 15 17 20 22 23 24 24 23 22 20 16 13 12 11 15 16 16 15 10 10 8 8 7 8 6 6 7 8
10 7 5 8 11 12 12 11 13 12 10 8 6 14 14 9 10 11 14 17 20 21 21 21 21 21 18 16 13 14 15 17 17 16 15 18 12 11 10 8 8 8 8 9
8 6 8 12 12 13 9 5 8 10 12 13 14 13 18 11 13 13 16 19 19 17 16 17 18 19 17 15 14 15 16 17 18 17 17 16 13 11 11 11 12 10 9 9
6 5 6 7 6 11 8 5 8 10 9 13 18 16 18 14 14 14 15 14 14 13 13 14 15 15 14 13 14 16 18 18 18 18 17 16 18 17 17 15 13 10 8 8
7 10 8 6 6 7 10 6 5 6 9 12 10 13 16 15 12 15 14 13 12 11 11 11 12 13 13 16 17 18 20 19 19 18 17 16 18 20 21 18 15 12 10 8
5 6 10 11 11 8 13 11 9 8 9 11 8 15 15 14 12 14 14 13 11 11 11 11 10 11 14 17 19 20 20 20 19 18 16 15 16 13 13 15 13 12 9 9
6 5 3 10 10 8 7 12 11 11 14 14 14 17 20 17 16 16 14 11 9 11 12 11 9 10 13 16 19 20 20 19 19 17 16 15 13 13 14 13 12 10 10 10
6 5 4 4 7 12 12 5 6 8 9 14 18 23 19 17 15 16 13 9 9 11 13 12 9 9 11 14 16 17 18 18 17 16 15 12 12 13 14 13 13 12 12 11
8 6 4 6 12 15 15 10 11 10 10 10 15 15 8 9 10 11 8 7 10 12 14 13 8 7 10 13 15 16 16 17 16 16 15 14 13 14 14 13 13 12 12 11
10 6 8 12 13 13 16 17 16 12 14 12 12 17 8 9 10 9 9 10 12 12 12 11 6 7 11 14 15 15 15 15 15 15 15 14 14 15 14 13 13 12 11 10
9 6 6 6 6 9 12 18 20 17 13 14 16 17 4 7 9 10 12 14 14 13 11 7 3 8 11 13 14 15 14 14 14 15 16 16 15 15 15 14 13 11 11 9
8 7 10 12 12 7 11 15 18 18 13 16 23 26 20 15 16 17 18 18 17 14 9 4 5 9 11 12 13 14 14 14 14 14 16 16 16 15 15 14 13 11 10 8
8 8 10 18 21 20 23 24 20 21 22 21 24 25 24 18 16 16 16 16 16 13 6 5 8 9 11 12 12 13 14 13 13 15 16 16 15 15 14 13 12 10 8 7
8 7 8 17 21 21 23 23 20 19 21 25 27 29 21 14 10 12 14 14 14 10 5 8 10 11 12 12 13 14 14 13 13 16 16 16 15 15 14 13 11 10 8 6
7 5 6 12 14 15 10 9 10 11 14 16 21 23 16 12 13 13 13 13 10 5 7 10 11 11 12 12 14 14 14 14 15 16 16 15 15 14 13 12 10 9 7 5
8 6 5 8 11 7 5 6 9 11 13 16 19 20 14 11 9 9 9 8 4 5 10 11 12 12 12 13 14 15 15 16 16 16 15 14 14 13 12 10 9 7 5 4
13 8 5 5 7 9 7 5 5 5 7 7 14 17 15 9 9 5 5 4 2 8 11 12 13 14 14 14 15 17 16 16 15 15 14 13 13 12 11 9 8 6 4 3
7 9 6 5 6 5 6 7 5 6 5 7 10 10 8 5 4 4 7 6 9 12 12 13 14 14 14 14 15 17 16 15 14 14 13 12 11 11 10 8 7 4 3 1
4 5 7 7 6 7 6 7 6 4 9 11 10 8 3 2 2 6 7 10 12 13 14 14 14 13 13 14 15 16 15 14 13 13 12 11 10 10 9 7 5 4 2 0
7 6 6 5 5 5 1 4 3 6 7 8 7 4 3 7 9 10 11 11 12 13 14 14 14 14 12 13 15 16 15 14 13 13 12 11 10 8 6 6 5 3 1 2
6 6 3 5 6 4 3 6 6 5 7 6 3 2 8 9 9 11 12 12 12 13 13 13 15 15 13 12 13 17 14 13 13 13 12 10 9 7 5 4 3 2 1 2
4 4 5 7 9 7 7 5 3 3 4 3 2 6 7 10 12 12 11 11 12 13 13 13 15 16 14 13 13 15 13 12 12 12 10 8 7 6 5 3 2 2 2 3
4 5 5 7 8 7 1 3 3 4 5 7 8 8 10 14 13 13 12 12 12 12 12 12 13 15 14 13 13 12 11 12 12 10 8 7 5 5 4 3 2 2 2 4
7 8 6 4 3 3 3 3 4 5 7 8 11 12 11 11 14 14 12 12 12 12 12 13 15 15 14 13 12 10 9 10 10 8 7 5 4 3 2 2 1 0 3 5
Wind_Direction
172 197 215 219 220 249 272 258 261 263 282 291 274 274 272 271 268 267 266 264 261 257 254 254 256 255 252 242 227 211 191 177 175 177 170 163 155 143 129 123 129 132 131 132
171 225 233 238 235 243 250 260 266 275 274 280 284 282 277 267 262 261 262 260 258 257 254 249 248 247 244 237 221 203 184 176 178 179 173 163 139 125 116 114 111 121 129 135
202 163 215 218 226 236 244 250 262 272 293 278 285 284 272 260 257 256 254 256 255 252 249 245 240 238 232 229 213 196 181 177 179 174 154 137 123 122 119 117 112 121 131 135
225 220 213 210 224 229 252 247 253 262 267 273 272 289 288 284 271 260 255 252 251 248 245 242 239 233 222 217 204 191 177 177 177 168 165 163 159 154 151 140 131 133 134 133
204 202 215 227 229 220 243 243 244 255 262 269 252 261 280 272 264 262 257 255 255 255 251 246 241 236 223 206 189 181 174 177 174 172 172 169 155 140 132 130 133 134 134 132
228 198 222 230 228 224 229 235 257 254 254 256 250 242 272 270 265 267 264 264 269 274 270 260 250 241 223 193 181 175 175 176 173 172 171 166 148 142 142 144 144 144 141 137
232 221 213 200 204 198 203 212 247 230 223 246 252 238 255 275 262 257 268 280 292 297 289 277 258 230 205 186 181 178 177 173 172 171 169 158 153 152 153 154 155 152 149 145
224 233 201 202 213 205 202 210 229 255 255 267 251 245 257 268 259 259 266 278 292 307 306 288 267 230 201 187 182 180 177 172 170 167 160 153 153 152 152 155 154 153 146 140
215 253 196 207 208 210 201 218 238 266 273 272 256 254 260 256 253 253 254 264 293 315 321 305 274 231 202 188 184 181 175 169 166 160 150 148 150 148 146 147 145 136 131 133
211 252 240 208 210 226 233 228 209 221 253 257 259 261 261 259 249 246 249 267 301 319 323 320 286 228 198 186 182 178 170 162 156 148 142 139 143 142 141 141 138 133 132 133
207 226 234 198 214 213 203 214 219 236 245 262 273 269 276 266 260 253 251 282 310 320 322 324 296 223 186 175 171 166 160 151 146 141 133 133 136 136 137 133 130 130 132 137
204 225 250 238 231 231 224 225 221 236 242 244 262 270 272 254 259 252 265 296 313 317 320 322 291 192 170 168 163 154 150 145 140 136 132 133 133 132 129 126 126 129 131 134
173 205 268 261 213 215 237 238 235 239 253 250 254 267 263 252 256 257 277 302 313 315 320 318 229 174 165 162 152 144 139 135 134 134 132 132 131 129 126 125 125 126 127 131
183 213 229 262 283 285 255 252 240 233 241 251 249 261 266 268 276 282 291 302 302 305 309 272 188 164 154 151 141 134 129 131 134 133 130 128 128 125 124 123 123 124 128 134
204 242 240 257 272 274 269 269 258 240 240 251 262 268 276 285 289 290 293 293 293 294 276 199 169 149 141 137 132 128 127 131 132 127 122 121 120 119 120 120 121 122 126 130
209 259 274 274 274 275 274 273 266 252 245 248 262 271 278 290 289 289 290 289 287 283 218 172 155 143 141 137 132 127 125 128 125 119 117 118 119 118 119 121 123 124 128 131
203 235 277 286 301 295 276 277 265 243 235 240 252 260 269 271 277 278 280 281 280 256 171 156 148 142 137 134 132 127 125 123 117 115 117 119 119 119 121 123 124 127 130 134
222 235 266 287 304 297 325 306 286 273 266 249 251 263 270 269 274 277 285 286 269 169 149 141 134 127 124 124 122 120 118 116 116 116 117 119 121 121 124 124 123 124 129 133
227 234 254 275 292 285 306 324 311 294 291 293 270 266 267 271 284 292 347 313 187 136 129 124 123 122 121 122 122 117 114 115 116 118 119 122 124 125 124 122 122 125 132 126
213 217 237 271 291 300 314 324 314 268 305 3 327 294 273 249 278 32 20 50 102 109 112 115 117 117 117 119 120 115 115 115 115 117 119 120 121 121 120 119 119 120 120 105
173 202 229 251 266 275 287 310 300 324 345 339 329 317 255 207 52 72 67 75 91 102 110 115 114 112 114 119 116 111 110 110 113 113 111 109 108 109 111 114 116 122 118 71
207 207 216 221 243 273 299 311 317 321 319 311 316 333 110 100 90 87 85 89 95 101 107 111 109 107 110 115 114 108 107 111 112 109 106 105 105 105 114 120 120 112 65 330
223 227 248 234 259 312 284 268 297 313 293 298 309 107 124 112 101 98 95 96 98 102 106 109 111 108 104 107 111 109 113 115 113 109 107 108 109 111 116 113 111 96 21 347
232 217 245 264 268 277 287 295 336 331 296 312 122 130 127 118 117 109 104 103 103 105 109 113 111 106 101 100 102 109 115 116 114 114 116 120 120 116 110 100 78 40 6 343
249 197 234 261 282 301 347 19 31 64 84 96 100 107 117 119 117 114 111 109 109 109 108 107 106 104 104 105 103 107 115 120 119 119 120 118 112 112 105 89 56 6 3 337
214 209 222 263 314 303 351 58 94 106 105 112 114 109 110 117 120 117 111 111 111 109 108 106 104 106 108 107 105 108 118 124 123 121 119 114 112 105 86 57 44 167 314 319